sat.trackr.live / text

‹ back to catalog

ONEWEB-0392

NORAD 50472 · 2021-132D

PAYLOAD ACTIVE UNKNOWN

§ Identity

Operator
Country
UK
Launch date
2021-12-27
Launch site
TYMSC
Launch vehicle
Mass (kg)
RCS (m²)

Purposes: comms

External: N2YO · Heavens-Above · Gunter

§ Orbital elements

Epoch: 2026-05-25T03:32:56.728320Z

Period
109.29 min
Inclination
87.9162°
Eccentricity
0.0002144
Mean motion
13.17649467 rev/d
Perigee alt
1,192.1 km
Apogee alt
1,195.3 km
Semi-major
7,571.8 km
B*
2.3723e-4
RAAN
10.4271°
Arg perigee
90.9173°
Mean anomaly
269.2204°
Rev number
21,508

§ Raw data

ONEWEB-03921 50472U 21132D   26145.14787880  .00000105  00000+0  23723-3 0  99932 50472  87.9162  10.4271 0002144  90.9173 269.2204 13.17649467215087

JSON: /api/v1/satellites/50472 · /tle

For live sub-satellite position, see the globe view (requires WebGL).

§ Visibility from observer

Set your observer location to see the next 7 days of passes ≥ 10°. The values pass through the URL so the page stays shareable.

No JS? Fill the form by hand. The geolocation button needs JavaScript.